Welcome to The Terminal

Map Downloads:

134 maps found
Name Type Author Date Downloads Rating
Amaplanca II TSC Gwizz 09/10/02 1748 50% (1)
Apple War Ooze TSC Gwizz 21/05/02 2122 0% (0)
Arboria TSC Anders Robert Pilgaard 21/05/02 1985 0% (0)
Atlantis National Railways TSC Anders Robert Pilgaard 21/05/02 3323 100% (2)
Atoll RRT2 Gwizz 21/05/02 1786 70% (2)
Atoll Temple RRT2 Gwizz 21/05/02 1618 0% (0)
Auf Der Flucht RRT2 Robert the "porky" 21/05/02 1842 75% (2)
Aurelia 1862 TSC Anders Robert Pilgaard 21/05/02 1723 0% (0)
Bex TSC Adam 21/05/02 1520 0% (0)
Big Apple II RRT2 PopTop Software 21/05/02 2529 80% (1)
Big Apple IIe TSC Steve Lorenz 21/05/02 1509 0% (0)
Borduria TSC Anders Robert Pilgaard 21/05/02 1638 0% (0)
Britannia RRT2 J Sylvest and GS Bales 21/05/02 2112 0% (0)
Bulvanian Petroleoum TSC Toni Ronkko 24/09/02 2292 50% (2)
Changes In Transportation RRT2 Brian Duarte 21/05/02 2424 0% (0)
Cheryls Valley RRT2 Tigger 21/05/02 1788 0% (0)
Closa RRT2 Darrell 21/05/02 1600 0% (0)
Coal Country RRT2 Sirian 21/05/02 2557 0% (0)
Coast Line TSC Lars Maischak 15/06/03 1725 100% (1)
Colorz! RRT2 Bill Ingram 21/05/02 1987 85% (2)
Copalis RRT2 Mike Burke & Jamie Burnett 21/05/02 2005 95% (2)
Corsairland RRT2 Kent Powderly 21/05/02 2179 0% (0)
County Sodenstein TSC Lars Maischak 15/06/03 1282 60% (1)
Darkmere RRT2 Ian Lewis 21/05/02 1816 0% (0)
Docklands RRT2 Jonathon James Tan 21/05/02 2039 20% (1)
DragonIsle RRT2 Unknown 21/05/02 1903 0% (0)
Edland RRT2 Eddie Bangor 21/05/02 2136 100% (1)
Euphoria TSC PopTop Software 21/05/02 1552 90% (1)
Fantasia TSC Anders Robert Pilgaard 21/05/02 1451 0% (0)
File Island TSC Jimmy Chau 09/12/05 3348 90% (1)
Final Fantasy 7 TSC Matthew Willis 21/05/02 1947 0% (0)
Fisland RRT2 Dave Donaldson 21/05/02 2126 100% (1)
Free Four All RRT2 Sirian 21/05/02 1949 100% (1)
Gateway to Paradise TSC Matthew Asnip 21/05/02 2259 0% (0)
Gateway to Paradise (Light) TSC Matthew Asnip 21/05/02 1069 0% (0)
Gold Rush! RRT2 Andrew Mark Schwartz 21/05/02 2485 0% (0)
Golden Fjords Scenic RRT2 Kent Powderly 21/05/02 1882 0% (0)
Grand Prix RRT2 Sirian 21/05/02 2284 89% (7)
Great Crater RRT2 Kent Powderly 21/05/02 2566 90% (1)
Green Mars RRT2 Gonzo 21/05/02 2354 0% (0)
Grosetania RRT2 Whitey 21/05/02 1640 0% (0)
Hail Sevastia TSC David Masters 21/05/02 1525 45% (2)
Hibirnia TSC Anders Robert Pilgaard 21/05/02 1595 0% (0)
High Desert RRT2 Dave 21/05/02 2480 0% (0)
High Desert 2 TSC A. Gracier 21/05/02 1820 0% (0)
Industrial Fixer Upper TSC Gwizz 21/05/02 1625 70% (1)
Island Conquest TSC James Stevens 21/05/02 1481 0% (0)
Kingdom of Tara TSC Anders Robert Pilgaard 21/05/02 1626 30% (1)
Kua'Apuanii TSC PopTop Software 21/05/02 1372 0% (0)
Lagoria TSC Anders Robert Pilgaard 21/05/02 3859 0% (0)
Lala-land TSC Robbie Langton 19/04/04 1736 0% (0)
Lusitania TSC Anders Robert Pilgaard 21/05/02 1684 50% (1)
Mad King Ed TSC Eddie Bangor 21/05/02 1584 90% (1)
Mad King Ed RRT2 Eddie Bangor 21/05/02 1604 0% (0)
Majode TSC Mark Confer 20/02/04 1739 100% (2)
Making The Grade RRT2 Sirian 21/05/02 2063 100% (2)
Making The Grade RRT2 Sirian 21/05/02 1246 0% (0)
Mars RRT2 James Stevens 21/05/02 1766 0% (0)
Mars TSC James Stevens 21/05/02 1443 0% (0)
Mason County RRT2 Mike Gasaway 21/05/02 1671 0% (0)
Metro31-H RRT2 Unknown 21/05/02 2144 0% (0)
Middle Earth RRT2 Kent Powderly 21/05/02 4390 0% (0)
Military 12 TSC Kraellin 21/05/02 1995 30% (1)
MongoIsland TSC Anders Robert Pilgaard 21/05/02 1364 0% (0)
Montania 1858 TSC Anders Robert Pilgaard 21/05/02 1549 0% (0)
Morietzia RRT2 Unknown 21/05/02 1770 0% (0)
Mtron '99 TSC James Stevens 21/05/02 1219 0% (0)
New Eden TSC Marco Stefanutti 21/05/02 2679 0% (0)
Oceania RRT2 Eckhard Flor 21/05/02 2164 0% (0)
Oceania 1862 TSC Anders Robert Pilgaard 21/05/02 1587 0% (0)
Ourcadia RRT2 Rodolphe Bourgouin 21/05/02 1435 0% (0)
Overpass TSC Steve Lorenz 21/05/02 1125 0% (0)
Overpass & Tunnels TSC David Gross 21/05/02 1559 0% (0)
Paradise 2000 TSC Rick Bottens 21/05/02 1463 0% (0)
Parniath Bridge TSC PopTop Software 21/05/02 1483 0% (0)
Party Machines TSC Lars Maischak 21/05/02 1729 80% (1)
Patagonia RRT2 [pro] 21/05/02 1935 0% (0)
Peninsula RRT2 Anders Robert Pilgaard 21/05/02 1642 0% (0)
Peninsula 2 TSC Anders Robert Pilgaard 03/06/02 2425 0% (0)
Quickie 2A TSC Unknown 21/05/02 1141 0% (0)
Royal Empress TSC Jon Calon 21/05/02 1596 0% (0)
Sarelia TSC Anders Robert Pilgaard 21/05/02 2018 80% (1)
Something Trekky TSC James Stevens 21/05/02 1286 0% (0)
Starship Troopers TSC Steve Lorenz 21/05/02 2150 100% (1)
Strange Glue RRT2 James Stevens 21/05/02 1503 0% (0)
Sylvania TSC Anders Robert Pilgaard 21/05/02 2529 0% (0)
Tanagore Island TSC David Masters 21/05/02 1483 0% (0)
Taresia TSC Anders Robert Pilgaard 03/06/02 1304 0% (0)
Tatooine RRT2 Andy Moorer 21/05/02 2162 0% (0)
Tehos RRT2 Juho Tiettinen 15/06/03 1534 0% (0)
TehoWorld RRT2 Juho Tiettinen 15/06/03 2706 0% (0)
Terra Aqueos RRT2 James Wellham 21/05/02 1911 100% (1)
Tester TSC Steve Lorenz 21/05/02 1320 0% (0)
Tester RRT2 Steve Lorenz 21/05/02 1445 0% (0)
The Darkening 1 TSC James Stevens 21/05/02 1607 80% (1)
The Darkening 2 TSC James Stevens 21/05/02 1311 10% (1)
The Darkening 3: Unite the States TSC James Stevens 21/05/02 1613 90% (1)
The Darkening 4: Floods Legacy TSC James Stevens 21/05/02 1467 0% (0)
The Iron Spike TSC Overlord 15/06/03 2618 0% (0)
The Main Vein RRT2 Derek D 21/05/02 1499 0% (0)
The Mines RRT2 Tony J Frank 21/05/02 2154 0% (0)
The National World TSC Matthew Tam 21/05/02 1653 0% (0)
The World Map TSC Matthew Tam 21/05/02 2544 0% (0)
Tidland TSC James E. Petts 21/05/02 1168 0% (0)
Tolnedran Imperial Railway TSC Richard Lally 21/05/02 1943 0% (0)
Towers Of Hell TSC James Stevens 21/05/02 1222 0% (0)
Train Island RRT2 Jonathan 21/05/02 1500 0% (0)
Treasure Island RRT2 Unknown 21/05/02 2008 0% (0)
Utopia RRT2 Cecil Harper 21/05/02 2073 0% (0)
Utopia TSC Anders Robert Pilgaard 21/05/02 1449 0% (0)
Utopia 2 TSC Anders Robert Pilgaard 21/05/02 1681 0% (0)
Venturia TSC Anders Robert Pilgaard 03/06/02 2546 0% (0)
Vulcano RRT2 Martijn ter Haar 21/05/02 1417 0% (0)
Witch's Route TSC Charles Swain 21/05/02 1296 10% (1)
WNE 01: Map One RRT2 James Stevens 21/05/02 1685 0% (0)
WNE 02: Switzlerland 2099 RRT2 James Stevens 21/05/02 2015 0% (0)
WNE 03: Appleasia RRT2 James Stevens 21/05/02 1646 0% (0)
WNE 04: Begin Again RRT2 James Stevens 21/05/02 1570 0% (0)
WNE 05: Mars Corp RRT2 James Stevens 21/05/02 1553 0% (0)
WNE 06: The Freedom Movement RRT2 James Stevens 21/05/02 1370 0% (0)
WNE 07: Titan: The New Earth? RRT2 James Stevens 21/05/02 1902 0% (0)
WNE 08: Titan: Last Rights RRT2 James Stevens 21/05/02 1631 30% (1)
WNE 09: Erase/Rewind RRT2 James Stevens 21/05/02 1742 0% (0)
WNE 10: Reunification RRT2 James Stevens 21/05/02 1305 0% (0)
WNE 11: Future's End TSC James Stevens 21/05/02 1453 0% (0)
WNE 12: Test Of Time TSC James Stevens 21/05/02 1447 75% (2)
WNE 13: The Awakening RRT2 James Stevens 21/05/02 1468 0% (0)
WNE 14: The Money Pit RRT2 James Stevens 21/05/02 1603 0% (0)
WNE 15: Scorched Earth RRT2 James Stevens 21/05/02 1594 0% (0)
WNE 16: The Launch RRT2 James Stevens 21/05/02 1465 0% (0)
WNE 17: Rising Star RRT2 James Stevens 21/05/02 1306 0% (0)
WNE 18: Cold War RRT2 James Stevens 21/05/02 1574 0% (0)
WNE 19: For Gorwin's Honour RRT2 James Stevens 21/05/02 1613 0% (0)
WNE 20: From Hell's Heart... TSC James Stevens 21/05/02 1228 0% (0)

Site created April 23, 1998. © Jesse Reid, All Rights Reserved, 2003.